Year,Month,Day,Hour,Minute,Value (Times are PST for temperature in C)
2018,08,10,00,00,17.40
2018,08,10,00,01,17.40
2018,08,10,00,02,17.40
2018,08,10,00,03,17.40
2018,08,10,00,04,17.40
2018,08,10,00,05,17.30
2018,08,10,00,06,17.30
2018,08,10,00,07,17.30
2018,08,10,00,08,17.30
2018,08,10,00,09,17.30
2018,08,10,00,10,17.20
2018,08,10,00,11,17.20
2018,08,10,00,12,17.20
2018,08,10,00,13,17.20
2018,08,10,00,14,17.10
2018,08,10,00,15,17.10
2018,08,10,00,16,17.00
2018,08,10,00,17,17.00
2018,08,10,00,18,17.00
2018,08,10,00,19,16.90
2018,08,10,00,20,16.90
2018,08,10,00,21,16.90
2018,08,10,00,22,16.90
2018,08,10,00,23,16.80
2018,08,10,00,24,16.80
2018,08,10,00,25,16.80
2018,08,10,00,26,16.80
2018,08,10,00,27,16.70
2018,08,10,00,28,16.70
2018,08,10,00,29,16.70
2018,08,10,00,30,16.60
2018,08,10,00,31,16.60
2018,08,10,00,32,16.60
2018,08,10,00,33,16.60
2018,08,10,00,34,16.60
2018,08,10,00,35,16.60
2018,08,10,00,36,16.60
2018,08,10,00,37,16.50
2018,08,10,00,38,16.50
2018,08,10,00,39,16.50
2018,08,10,00,40,16.50
2018,08,10,00,41,16.50
2018,08,10,00,42,16.50
2018,08,10,00,43,16.50
2018,08,10,00,44,16.50
2018,08,10,00,45,16.50
2018,08,10,00,46,16.40
2018,08,10,00,47,16.40
2018,08,10,00,48,16.40
2018,08,10,00,49,16.40
2018,08,10,00,50,16.40
2018,08,10,00,51,16.30
2018,08,10,00,52,16.30
2018,08,10,00,53,16.30
2018,08,10,00,54,16.30
2018,08,10,00,55,16.20
2018,08,10,00,56,16.20
2018,08,10,00,57,16.20
2018,08,10,00,58,16.20
2018,08,10,00,59,16.20
2018,08,10,01,00,16.20
2018,08,10,01,01,16.10
2018,08,10,01,02,16.10
2018,08,10,01,03,16.10
2018,08,10,01,04,16.10
2018,08,10,01,05,16.10
2018,08,10,01,06,16.00
2018,08,10,01,07,16.00
2018,08,10,01,08,15.90
2018,08,10,01,09,15.90
2018,08,10,01,10,15.90
2018,08,10,01,11,15.90
2018,08,10,01,12,15.90
2018,08,10,01,13,15.80
2018,08,10,01,14,15.80
2018,08,10,01,15,15.80
2018,08,10,01,16,15.70
2018,08,10,01,17,15.70
2018,08,10,01,18,15.70
2018,08,10,01,19,15.70
2018,08,10,01,20,15.70
2018,08,10,01,21,15.60
2018,08,10,01,22,15.60
2018,08,10,01,23,15.60
2018,08,10,01,24,15.60
2018,08,10,01,25,15.60
2018,08,10,01,26,15.60
2018,08,10,01,27,15.50
2018,08,10,01,28,15.50
2018,08,10,01,29,15.50
2018,08,10,01,30,15.50
2018,08,10,01,31,15.50
2018,08,10,01,32,15.50
2018,08,10,01,33,15.50
2018,08,10,01,34,15.40
2018,08,10,01,35,15.50
2018,08,10,01,36,15.50
2018,08,10,01,37,15.50
2018,08,10,01,38,15.50
2018,08,10,01,39,15.50
2018,08,10,01,40,15.50
2018,08,10,01,41,15.50
2018,08,10,01,42,15.50
2018,08,10,01,43,15.50
2018,08,10,01,44,15.50
2018,08,10,01,45,15.50
2018,08,10,01,46,15.50
2018,08,10,01,47,15.50
2018,08,10,01,48,15.50
2018,08,10,01,49,15.50
2018,08,10,01,50,15.50
2018,08,10,01,51,15.50
2018,08,10,01,52,15.50
2018,08,10,01,53,15.50
2018,08,10,01,54,15.50
2018,08,10,01,55,15.50
2018,08,10,01,56,15.50
2018,08,10,01,57,15.50
2018,08,10,01,58,15.40
2018,08,10,01,59,15.40
2018,08,10,02,00,15.40
2018,08,10,02,01,15.40
2018,08,10,02,02,15.40
2018,08,10,02,03,15.40
2018,08,10,02,04,15.30
2018,08,10,02,05,15.30
2018,08,10,02,06,15.30
2018,08,10,02,07,15.30
2018,08,10,02,08,15.30
2018,08,10,02,09,15.30
2018,08,10,02,10,15.30
2018,08,10,02,11,15.30
2018,08,10,02,12,15.30
2018,08,10,02,13,15.30
2018,08,10,02,14,15.20
2018,08,10,02,15,15.20
2018,08,10,02,16,15.10
2018,08,10,02,17,15.10
2018,08,10,02,18,15.10
2018,08,10,02,19,15.00
2018,08,10,02,20,15.00
2018,08,10,02,21,14.90
2018,08,10,02,22,14.90
2018,08,10,02,23,14.90
2018,08,10,02,24,14.90
2018,08,10,02,25,14.90
2018,08,10,02,26,14.90
2018,08,10,02,27,14.80
2018,08,10,02,28,14.80
2018,08,10,02,29,14.80
2018,08,10,02,30,14.80
2018,08,10,02,31,14.80
2018,08,10,02,32,14.70
2018,08,10,02,33,14.70
2018,08,10,02,34,14.70
2018,08,10,02,35,14.70
2018,08,10,02,36,14.70
2018,08,10,02,37,14.60
2018,08,10,02,38,14.60
2018,08,10,02,39,14.60
2018,08,10,02,40,14.60
2018,08,10,02,41,14.60
2018,08,10,02,42,14.60
2018,08,10,02,43,14.60
2018,08,10,02,44,14.60
2018,08,10,02,45,14.60
2018,08,10,02,46,14.60
2018,08,10,02,47,14.60
2018,08,10,02,48,14.60
2018,08,10,02,49,14.60
2018,08,10,02,50,14.60
2018,08,10,02,51,14.60
2018,08,10,02,52,14.60
2018,08,10,02,53,14.60
2018,08,10,02,54,14.60
2018,08,10,02,55,14.60
2018,08,10,02,56,14.60
2018,08,10,02,57,14.60
2018,08,10,02,58,14.60
2018,08,10,02,59,14.70
2018,08,10,03,00,14.70
2018,08,10,03,01,14.70
2018,08,10,03,02,14.70
2018,08,10,03,03,14.70
2018,08,10,03,04,14.70
2018,08,10,03,05,14.70
2018,08,10,03,06,14.70
2018,08,10,03,07,14.70
2018,08,10,03,08,14.70
2018,08,10,03,09,14.70
2018,08,10,03,10,14.70
2018,08,10,03,11,14.70
2018,08,10,03,12,14.70
2018,08,10,03,13,14.70
2018,08,10,03,14,14.80
2018,08,10,03,15,14.80
2018,08,10,03,16,14.80
2018,08,10,03,17,14.80
2018,08,10,03,18,14.80
2018,08,10,03,19,14.80
2018,08,10,03,20,14.80
2018,08,10,03,21,14.80
2018,08,10,03,22,14.80
2018,08,10,03,23,14.80
2018,08,10,03,24,14.80
2018,08,10,03,25,14.80
2018,08,10,03,26,14.70
2018,08,10,03,27,14.70
2018,08,10,03,28,14.60
2018,08,10,03,29,14.60
2018,08,10,03,30,14.50
2018,08,10,03,31,14.40
2018,08,10,03,32,14.40
2018,08,10,03,33,14.40
2018,08,10,03,34,14.30
2018,08,10,03,35,14.30
2018,08,10,03,36,14.30
2018,08,10,03,37,14.30
2018,08,10,03,38,14.30
2018,08,10,03,39,14.20
2018,08,10,03,40,14.20
2018,08,10,03,41,14.10
2018,08,10,03,42,14.10
2018,08,10,03,43,14.00
2018,08,10,03,44,14.00
2018,08,10,03,45,14.00
2018,08,10,03,46,13.90
2018,08,10,03,47,13.90
2018,08,10,03,48,13.90
2018,08,10,03,49,13.90
2018,08,10,03,50,13.90
2018,08,10,03,51,13.90
2018,08,10,03,52,13.90
2018,08,10,03,53,13.90
2018,08,10,03,54,13.90
2018,08,10,03,55,13.90
2018,08,10,03,56,13.90
2018,08,10,03,57,13.90
2018,08,10,03,58,13.90
2018,08,10,03,59,13.90
2018,08,10,04,00,13.90
2018,08,10,04,01,13.90
2018,08,10,04,02,13.90
2018,08,10,04,03,13.80
2018,08,10,04,04,13.80
2018,08,10,04,05,13.80
2018,08,10,04,06,13.70
2018,08,10,04,07,13.70
2018,08,10,04,08,13.70
2018,08,10,04,09,13.70
2018,08,10,04,10,13.70
2018,08,10,04,11,13.70
2018,08,10,04,12,13.70
2018,08,10,04,13,13.70
2018,08,10,04,14,13.70
2018,08,10,04,15,13.70
2018,08,10,04,16,13.70
2018,08,10,04,17,13.70
2018,08,10,04,18,13.70
2018,08,10,04,19,13.70
2018,08,10,04,20,13.70
2018,08,10,04,21,13.70
2018,08,10,04,22,13.70
2018,08,10,04,23,13.80
2018,08,10,04,24,13.80
2018,08,10,04,25,13.80
2018,08,10,04,26,13.80
2018,08,10,04,27,13.80
2018,08,10,04,28,13.80
2018,08,10,04,29,13.70
2018,08,10,04,30,13.70
2018,08,10,04,31,13.70
2018,08,10,04,32,13.70
2018,08,10,04,33,13.70
2018,08,10,04,34,13.60
2018,08,10,04,35,13.60
2018,08,10,04,36,13.60
2018,08,10,04,37,13.60
2018,08,10,04,38,13.60
2018,08,10,04,39,13.50
2018,08,10,04,40,13.50
2018,08,10,04,41,13.50
2018,08,10,04,42,13.40
2018,08,10,04,43,13.40
2018,08,10,04,44,13.40
2018,08,10,04,45,13.40
2018,08,10,04,46,13.40
2018,08,10,04,47,13.30
2018,08,10,04,48,13.30
2018,08,10,04,49,13.30
2018,08,10,04,50,13.30
2018,08,10,04,51,13.30
2018,08,10,04,52,13.30
2018,08,10,04,53,13.30
2018,08,10,04,54,13.30
2018,08,10,04,55,13.30
2018,08,10,04,56,13.30
2018,08,10,04,57,13.30
2018,08,10,04,58,13.30
2018,08,10,04,59,13.30
2018,08,10,05,00,13.30
2018,08,10,05,01,13.30
2018,08,10,05,02,13.30
2018,08,10,05,03,13.30
2018,08,10,05,04,13.30
2018,08,10,05,05,13.30
2018,08,10,05,06,13.30
2018,08,10,05,07,13.30
2018,08,10,05,08,13.30
2018,08,10,05,09,13.30
2018,08,10,05,10,13.30
2018,08,10,05,11,13.30
2018,08,10,05,12,13.30
2018,08,10,05,13,13.30
2018,08,10,05,14,13.30
2018,08,10,05,15,13.30
2018,08,10,05,16,13.30
2018,08,10,05,17,13.30
2018,08,10,05,18,13.30
2018,08,10,05,19,13.30
2018,08,10,05,20,13.30
2018,08,10,05,21,13.20
2018,08,10,05,22,13.20
2018,08,10,05,23,13.20
2018,08,10,05,24,13.20
2018,08,10,05,25,13.10
2018,08,10,05,26,13.10
2018,08,10,05,27,13.10
2018,08,10,05,28,13.10
2018,08,10,05,29,13.00
2018,08,10,05,30,13.00
2018,08,10,05,31,13.00
2018,08,10,05,32,13.00
2018,08,10,05,33,12.90
2018,08,10,05,34,12.90
2018,08,10,05,35,12.90
2018,08,10,05,36,12.90
2018,08,10,05,37,12.90
2018,08,10,05,38,12.90
2018,08,10,05,39,12.90
2018,08,10,05,40,12.90
2018,08,10,05,41,12.80
2018,08,10,05,42,12.80
2018,08,10,05,43,12.80
2018,08,10,05,44,12.80
2018,08,10,05,45,12.80
2018,08,10,05,46,12.80
2018,08,10,05,47,12.80
2018,08,10,05,48,12.80
2018,08,10,05,49,12.80
2018,08,10,05,50,12.70
2018,08,10,05,51,12.70
2018,08,10,05,52,12.70
2018,08,10,05,53,12.70
2018,08,10,05,54,12.70
2018,08,10,05,55,12.70
2018,08,10,05,56,12.70
2018,08,10,05,57,12.70
2018,08,10,05,58,12.70
2018,08,10,05,59,12.70
2018,08,10,06,00,12.70
2018,08,10,06,01,12.80
2018,08,10,06,02,12.80
2018,08,10,06,03,12.80
2018,08,10,06,04,12.90
2018,08,10,06,05,12.90
2018,08,10,06,06,12.90
2018,08,10,06,07,12.90
2018,08,10,06,08,12.90
2018,08,10,06,09,12.90
2018,08,10,06,10,12.90
2018,08,10,06,11,12.90
2018,08,10,06,12,12.90
2018,08,10,06,13,12.90
2018,08,10,06,14,12.90
2018,08,10,06,15,12.90
2018,08,10,06,16,12.80
2018,08,10,06,17,12.80
2018,08,10,06,18,12.80
2018,08,10,06,19,12.80
2018,08,10,06,20,12.80
2018,08,10,06,21,12.80
2018,08,10,06,22,12.80
2018,08,10,06,23,12.80
2018,08,10,06,24,12.80
2018,08,10,06,25,12.80
2018,08,10,06,26,12.80
2018,08,10,06,27,12.80
2018,08,10,06,28,12.80
2018,08,10,06,29,12.80
2018,08,10,06,30,12.80
2018,08,10,06,31,12.80
2018,08,10,06,32,12.80
2018,08,10,06,33,12.80
2018,08,10,06,34,12.70
2018,08,10,06,35,12.80
2018,08,10,06,36,12.80
2018,08,10,06,37,12.80
2018,08,10,06,38,12.80
2018,08,10,06,39,12.90
2018,08,10,06,40,12.90
2018,08,10,06,41,12.90
2018,08,10,06,42,13.00
2018,08,10,06,43,13.10
2018,08,10,06,44,13.20
2018,08,10,06,45,13.20
2018,08,10,06,46,13.30
2018,08,10,06,47,13.30
2018,08,10,06,48,13.30
2018,08,10,06,49,13.30
2018,08,10,06,50,13.30
2018,08,10,06,51,13.30
2018,08,10,06,52,13.30
2018,08,10,06,53,13.40
2018,08,10,06,54,13.40
2018,08,10,06,55,13.40
2018,08,10,06,56,13.40
2018,08,10,06,57,13.40
2018,08,10,06,58,13.40
2018,08,10,06,59,13.40
2018,08,10,07,00,13.40
2018,08,10,07,01,13.40
2018,08,10,07,02,13.40
2018,08,10,07,03,13.40
2018,08,10,07,04,13.40
2018,08,10,07,05,13.40
2018,08,10,07,06,13.40
2018,08,10,07,07,13.40
2018,08,10,07,08,13.30
2018,08,10,07,09,13.30
2018,08,10,07,10,13.30
2018,08,10,07,11,13.30
2018,08,10,07,12,13.40
2018,08,10,07,13,13.40
2018,08,10,07,14,13.40
2018,08,10,07,15,13.40
2018,08,10,07,16,13.50
2018,08,10,07,17,13.50
2018,08,10,07,18,13.60
2018,08,10,07,19,13.60
2018,08,10,07,20,13.60
2018,08,10,07,21,13.60
2018,08,10,07,22,13.60
2018,08,10,07,23,13.70
2018,08,10,07,24,13.70
2018,08,10,07,25,13.70
2018,08,10,07,26,13.80
2018,08,10,07,27,13.80
2018,08,10,07,28,13.80
2018,08,10,07,29,13.90
2018,08,10,07,30,13.90
2018,08,10,07,31,13.90
2018,08,10,07,32,13.90
2018,08,10,07,33,14.00
2018,08,10,07,34,14.00
2018,08,10,07,35,14.10
2018,08,10,07,36,14.10
2018,08,10,07,37,14.20
2018,08,10,07,38,14.20
2018,08,10,07,39,14.30
2018,08,10,07,40,14.30
2018,08,10,07,41,14.40
2018,08,10,07,42,14.50
2018,08,10,07,43,14.60
2018,08,10,07,44,14.60
2018,08,10,07,45,14.70
2018,08,10,07,46,14.80
2018,08,10,07,47,14.80
2018,08,10,07,48,14.90
2018,08,10,07,49,15.00
2018,08,10,07,50,15.00
2018,08,10,07,51,15.10
2018,08,10,07,52,15.20
2018,08,10,07,53,15.30
2018,08,10,07,54,15.30
2018,08,10,07,55,15.40
2018,08,10,07,56,15.40
2018,08,10,07,57,15.50
2018,08,10,07,58,15.50
2018,08,10,07,59,15.60
2018,08,10,08,00,15.70
2018,08,10,08,01,15.80
2018,08,10,08,02,15.90
2018,08,10,08,03,16.00
2018,08,10,08,04,16.10
2018,08,10,08,05,16.20
2018,08,10,08,06,16.30
2018,08,10,08,07,16.40
2018,08,10,08,08,16.40
2018,08,10,08,09,16.50
2018,08,10,08,10,16.60
2018,08,10,08,11,16.60
2018,08,10,08,12,16.70
2018,08,10,08,13,16.70
2018,08,10,08,14,16.80
2018,08,10,08,15,16.80
2018,08,10,08,16,16.90
2018,08,10,08,17,17.00
2018,08,10,08,18,17.00
2018,08,10,08,19,17.10
2018,08,10,08,20,17.20
2018,08,10,08,21,17.20
2018,08,10,08,22,17.30
2018,08,10,08,23,17.30
2018,08,10,08,24,17.40
2018,08,10,08,25,17.40
2018,08,10,08,26,17.40
2018,08,10,08,27,17.50
2018,08,10,08,28,17.50
2018,08,10,08,29,17.60
2018,08,10,08,30,17.60
2018,08,10,08,31,17.60
2018,08,10,08,32,17.70
2018,08,10,08,33,17.70
2018,08,10,08,34,17.80
2018,08,10,08,35,17.90
2018,08,10,08,36,17.90
2018,08,10,08,37,18.00
2018,08,10,08,38,18.00
2018,08,10,08,39,18.10
2018,08,10,08,40,18.20
2018,08,10,08,41,18.30
2018,08,10,08,42,18.30
2018,08,10,08,43,18.40
2018,08,10,08,44,18.50
2018,08,10,08,45,18.60
2018,08,10,08,46,18.60
2018,08,10,08,47,18.70
2018,08,10,08,48,18.80
2018,08,10,08,49,18.90
2018,08,10,08,50,19.00
2018,08,10,08,51,19.10
2018,08,10,08,52,19.20
2018,08,10,08,53,19.40
2018,08,10,08,54,19.40
2018,08,10,08,55,19.50
2018,08,10,08,56,19.60
2018,08,10,08,57,19.70
2018,08,10,08,58,19.80
2018,08,10,08,59,19.90
2018,08,10,09,00,19.90
2018,08,10,09,01,20.00
2018,08,10,09,02,20.10
2018,08,10,09,03,20.20
2018,08,10,09,04,20.30
2018,08,10,09,05,20.40
2018,08,10,09,06,20.50
2018,08,10,09,07,20.50
2018,08,10,09,08,20.60
2018,08,10,09,09,20.70
2018,08,10,09,10,20.80
2018,08,10,09,11,20.80
2018,08,10,09,12,20.90
2018,08,10,09,13,20.90
2018,08,10,09,14,21.00
2018,08,10,09,15,21.00
2018,08,10,09,16,21.10
2018,08,10,09,17,21.10
2018,08,10,09,18,21.20
2018,08,10,09,19,21.30
2018,08,10,09,20,21.40
2018,08,10,09,21,21.50
2018,08,10,09,22,21.50
2018,08,10,09,23,21.60
2018,08,10,09,24,21.70
2018,08,10,09,25,21.70
2018,08,10,09,26,21.80
2018,08,10,09,27,21.80
2018,08,10,09,28,21.80
2018,08,10,09,29,21.90
2018,08,10,09,30,22.00
2018,08,10,09,31,22.00
2018,08,10,09,32,22.10
2018,08,10,09,33,22.20
2018,08,10,09,34,22.20
2018,08,10,09,35,22.30
2018,08,10,09,36,22.30
2018,08,10,09,37,22.40
2018,08,10,09,38,22.40
2018,08,10,09,39,22.50
2018,08,10,09,40,22.60
2018,08,10,09,41,22.60
2018,08,10,09,42,22.60
2018,08,10,09,43,22.70
2018,08,10,09,44,22.70
2018,08,10,09,45,22.70
2018,08,10,09,46,22.70
2018,08,10,09,47,22.70
2018,08,10,09,48,22.70
2018,08,10,09,49,22.70
2018,08,10,09,50,22.80
2018,08,10,09,51,22.80
2018,08,10,09,52,22.80
2018,08,10,09,53,22.80
2018,08,10,09,54,22.80
2018,08,10,09,55,22.90
2018,08,10,09,56,22.90
2018,08,10,09,57,22.90
2018,08,10,09,58,22.90
2018,08,10,09,59,22.90
2018,08,10,10,00,22.90
2018,08,10,10,01,22.90
2018,08,10,10,02,23.00
2018,08,10,10,03,23.00
2018,08,10,10,04,23.00
2018,08,10,10,05,23.00
2018,08,10,10,06,23.00
2018,08,10,10,07,23.10
2018,08,10,10,08,23.10
2018,08,10,10,09,23.10
2018,08,10,10,10,23.20
2018,08,10,10,11,23.20
2018,08,10,10,12,23.30
2018,08,10,10,13,23.30
2018,08,10,10,14,23.30
2018,08,10,10,15,23.30
2018,08,10,10,16,23.30
2018,08,10,10,17,23.40
2018,08,10,10,18,23.40
2018,08,10,10,19,23.40
2018,08,10,10,20,23.40
2018,08,10,10,21,23.40
2018,08,10,10,22,23.50
2018,08,10,10,23,23.60
2018,08,10,10,24,23.70
2018,08,10,10,25,23.70
2018,08,10,10,26,23.80
2018,08,10,10,27,23.80
2018,08,10,10,28,23.80
2018,08,10,10,29,23.90
2018,08,10,10,30,23.90
2018,08,10,10,31,23.90
2018,08,10,10,32,23.90
2018,08,10,10,33,23.90
2018,08,10,10,34,23.90
2018,08,10,10,35,23.90
2018,08,10,10,36,23.90
2018,08,10,10,37,23.80
2018,08,10,10,38,23.70
2018,08,10,10,39,23.70
2018,08,10,10,40,23.60
2018,08,10,10,41,23.60
2018,08,10,10,42,23.60
2018,08,10,10,43,23.60
2018,08,10,10,44,23.60
2018,08,10,10,45,23.60
2018,08,10,10,46,23.60
2018,08,10,10,47,23.60
2018,08,10,10,48,23.60
2018,08,10,10,49,23.70
2018,08,10,10,50,23.70
2018,08,10,10,51,23.70
2018,08,10,10,52,23.70
2018,08,10,10,53,23.70
2018,08,10,10,54,23.70
2018,08,10,10,55,23.70
2018,08,10,10,56,23.80
2018,08,10,10,57,23.80
2018,08,10,10,58,23.80
2018,08,10,10,59,23.80
2018,08,10,11,00,23.80
2018,08,10,11,01,23.90
2018,08,10,11,02,23.90
2018,08,10,11,03,24.00
2018,08,10,11,04,24.10
2018,08,10,11,05,24.10
2018,08,10,11,06,24.20
2018,08,10,11,07,24.20
2018,08,10,11,08,24.20
2018,08,10,11,09,24.20
2018,08,10,11,10,24.20
2018,08,10,11,11,24.30
2018,08,10,11,12,24.30
2018,08,10,11,13,24.40
2018,08,10,11,14,24.40
2018,08,10,11,15,24.30
2018,08,10,11,16,24.30
2018,08,10,11,17,24.20
2018,08,10,11,18,24.20
2018,08,10,11,19,24.20
2018,08,10,11,20,24.10
2018,08,10,11,21,24.10
2018,08,10,11,22,24.00
2018,08,10,11,23,24.00
2018,08,10,11,24,24.00
2018,08,10,11,25,24.00
2018,08,10,11,26,24.10
2018,08,10,11,27,24.10
2018,08,10,11,28,24.10
2018,08,10,11,29,24.20
2018,08,10,11,30,24.30
2018,08,10,11,31,24.30
2018,08,10,11,32,24.40
2018,08,10,11,33,24.30
2018,08,10,11,34,24.30
2018,08,10,11,35,24.30
2018,08,10,11,36,24.30
2018,08,10,11,37,24.30
2018,08,10,11,38,24.30
2018,08,10,11,39,24.20
2018,08,10,11,40,24.20
2018,08,10,11,41,24.20
2018,08,10,11,42,24.20
2018,08,10,11,43,24.20
2018,08,10,11,44,24.10
2018,08,10,11,45,24.20
2018,08,10,11,46,24.10
2018,08,10,11,47,24.10
2018,08,10,11,48,24.20
2018,08,10,11,49,24.20
2018,08,10,11,50,24.30
2018,08,10,11,51,24.30
2018,08,10,11,52,24.40
2018,08,10,11,53,24.50
2018,08,10,11,54,24.60
2018,08,10,11,55,24.70
2018,08,10,11,56,24.70
2018,08,10,11,57,24.60
2018,08,10,11,58,24.60
2018,08,10,11,59,24.60
2018,08,10,12,00,24.60
2018,08,10,12,01,24.70
2018,08,10,12,02,24.60
2018,08,10,12,03,24.60
2018,08,10,12,04,24.60
2018,08,10,12,05,24.70
2018,08,10,12,06,24.70
2018,08,10,12,07,24.70
2018,08,10,12,08,24.70
2018,08,10,12,09,24.60
2018,08,10,12,10,24.60
2018,08,10,12,11,24.50
2018,08,10,12,12,24.50
2018,08,10,12,13,24.40
2018,08,10,12,14,24.40
2018,08,10,12,15,24.40
2018,08,10,12,16,24.40
2018,08,10,12,17,24.40
2018,08,10,12,18,24.40
2018,08,10,12,19,24.50
2018,08,10,12,20,24.50
2018,08,10,12,21,24.40
2018,08,10,12,22,24.40
2018,08,10,12,23,24.40
2018,08,10,12,24,24.40
2018,08,10,12,25,24.40
2018,08,10,12,26,24.40
2018,08,10,12,27,24.50
2018,08,10,12,28,24.60
2018,08,10,12,29,24.70
2018,08,10,12,30,24.70
2018,08,10,12,31,24.80
2018,08,10,12,32,24.80
2018,08,10,12,33,24.70
2018,08,10,12,34,24.70
2018,08,10,12,35,24.60
2018,08,10,12,36,24.60
2018,08,10,12,37,24.60
2018,08,10,12,38,24.60
2018,08,10,12,39,24.60
2018,08,10,12,40,24.50
2018,08,10,12,41,24.40
2018,08,10,12,42,24.30
2018,08,10,12,43,24.30
2018,08,10,12,44,24.30
2018,08,10,12,45,24.30
2018,08,10,12,46,24.30
2018,08,10,12,47,24.30
2018,08,10,12,48,24.20
2018,08,10,12,49,24.20
2018,08,10,12,50,24.30
2018,08,10,12,51,24.30
2018,08,10,12,52,24.30
2018,08,10,12,53,24.30
2018,08,10,12,54,24.40
2018,08,10,12,55,24.50
2018,08,10,12,56,24.60
2018,08,10,12,57,24.60
2018,08,10,12,58,24.60
2018,08,10,12,59,24.50
2018,08,10,13,00,24.50
2018,08,10,13,01,24.50
2018,08,10,13,02,24.50
2018,08,10,13,03,24.60
2018,08,10,13,04,24.60
2018,08,10,13,05,24.60
2018,08,10,13,06,24.50
2018,08,10,13,07,24.40
2018,08,10,13,08,24.40
2018,08,10,13,09,24.40
2018,08,10,13,10,24.30
2018,08,10,13,11,24.30
2018,08,10,13,12,24.30
2018,08,10,13,13,24.40
2018,08,10,13,14,24.50
2018,08,10,13,15,24.50
2018,08,10,13,16,24.70
2018,08,10,13,17,24.70
2018,08,10,13,18,24.60
2018,08,10,13,19,24.60
2018,08,10,13,20,24.70
2018,08,10,13,21,24.80
2018,08,10,13,22,24.80
2018,08,10,13,23,24.80
2018,08,10,13,24,24.80
2018,08,10,13,25,24.90
2018,08,10,13,26,24.80
2018,08,10,13,27,24.80
2018,08,10,13,28,24.80
2018,08,10,13,29,24.80
2018,08,10,13,30,24.80
2018,08,10,13,31,24.80
2018,08,10,13,32,24.80
2018,08,10,13,33,24.80
2018,08,10,13,34,24.80
2018,08,10,13,35,24.80
2018,08,10,13,36,24.80
2018,08,10,13,37,24.80
2018,08,10,13,38,24.80
2018,08,10,13,39,24.70
2018,08,10,13,40,24.70
2018,08,10,13,41,24.60
2018,08,10,13,42,24.60
2018,08,10,13,43,24.60
2018,08,10,13,44,24.70
2018,08,10,13,45,24.80
2018,08,10,13,46,24.90
2018,08,10,13,47,25.00
2018,08,10,13,48,25.10
2018,08,10,13,49,25.10
2018,08,10,13,50,25.00
2018,08,10,13,51,24.90
2018,08,10,13,52,24.90
2018,08,10,13,53,24.80
2018,08,10,13,54,24.80
2018,08,10,13,55,24.90
2018,08,10,13,56,24.90
2018,08,10,13,57,25.00
2018,08,10,13,58,25.00
2018,08,10,13,59,25.00
2018,08,10,14,00,25.00
2018,08,10,14,01,25.10
2018,08,10,14,02,25.10
2018,08,10,14,03,25.10
2018,08,10,14,04,25.10
2018,08,10,14,05,25.20
2018,08,10,14,06,25.40
2018,08,10,14,07,25.50
2018,08,10,14,08,25.70
2018,08,10,14,09,25.80
2018,08,10,14,10,25.80
2018,08,10,14,11,25.80
2018,08,10,14,12,25.90
2018,08,10,14,13,25.90
2018,08,10,14,14,26.00
2018,08,10,14,15,25.90
2018,08,10,14,16,25.90
2018,08,10,14,17,25.90
2018,08,10,14,18,25.90
2018,08,10,14,19,25.90
2018,08,10,14,20,25.80
2018,08,10,14,21,25.80
2018,08,10,14,22,25.90
2018,08,10,14,23,25.90
2018,08,10,14,24,25.90
2018,08,10,14,25,26.00
2018,08,10,14,26,26.10
2018,08,10,14,27,26.20
2018,08,10,14,28,26.30
2018,08,10,14,29,26.30
2018,08,10,14,30,26.50
2018,08,10,14,31,26.60
2018,08,10,14,32,26.70
2018,08,10,14,33,26.70
2018,08,10,14,34,26.70
2018,08,10,14,35,26.70
2018,08,10,14,36,26.80
2018,08,10,14,37,26.80
2018,08,10,14,38,26.80
2018,08,10,14,39,26.80
2018,08,10,14,40,26.80
2018,08,10,14,41,26.80
2018,08,10,14,42,26.90
2018,08,10,14,43,26.90
2018,08,10,14,44,26.90
2018,08,10,14,45,26.90
2018,08,10,14,46,26.90
2018,08,10,14,47,26.90
2018,08,10,14,48,26.90
2018,08,10,14,49,26.80
2018,08,10,14,50,26.80
2018,08,10,14,51,26.80
2018,08,10,14,52,26.80
2018,08,10,14,53,26.90
2018,08,10,14,54,26.80
2018,08,10,14,55,26.80
2018,08,10,14,56,26.70
2018,08,10,14,57,26.70
2018,08,10,14,58,26.60
2018,08,10,14,59,26.50
2018,08,10,15,00,26.40
2018,08,10,15,01,26.40
2018,08,10,15,02,26.40
2018,08,10,15,03,26.50
2018,08,10,15,04,26.50
2018,08,10,15,05,26.50
2018,08,10,15,06,26.50
2018,08,10,15,07,26.40
2018,08,10,15,08,26.40
2018,08,10,15,09,26.50
2018,08,10,15,10,26.70
2018,08,10,15,11,26.80
2018,08,10,15,12,26.90
2018,08,10,15,13,27.00
2018,08,10,15,14,27.10
2018,08,10,15,15,27.10
2018,08,10,15,16,27.30
2018,08,10,15,17,27.40
2018,08,10,15,18,27.50
2018,08,10,15,19,27.60
2018,08,10,15,20,27.60
2018,08,10,15,21,27.60
2018,08,10,15,22,27.50
2018,08,10,15,23,27.50
2018,08,10,15,24,27.40
2018,08,10,15,25,27.30
2018,08,10,15,26,27.30
2018,08,10,15,27,27.30
2018,08,10,15,28,27.20
2018,08,10,15,29,27.00
2018,08,10,15,30,26.90
2018,08,10,15,31,26.80
2018,08,10,15,32,26.70
2018,08,10,15,33,26.60
2018,08,10,15,34,26.70
2018,08,10,15,35,26.70
2018,08,10,15,36,26.80
2018,08,10,15,37,26.80
2018,08,10,15,38,26.80
2018,08,10,15,39,26.90
2018,08,10,15,40,27.00
2018,08,10,15,41,27.10
2018,08,10,15,42,27.10
2018,08,10,15,43,27.10
2018,08,10,15,44,27.00
2018,08,10,15,45,27.00
2018,08,10,15,46,27.00
2018,08,10,15,47,27.10
2018,08,10,15,48,27.20
2018,08,10,15,49,27.20
2018,08,10,15,50,27.30
2018,08,10,15,51,27.40
2018,08,10,15,52,27.50
2018,08,10,15,53,27.60
2018,08,10,15,54,27.70
2018,08,10,15,55,27.90
2018,08,10,15,56,28.00
2018,08,10,15,57,28.20
2018,08,10,15,58,28.30
2018,08,10,15,59,28.40
2018,08,10,16,00,28.40
2018,08,10,16,01,28.60
2018,08,10,16,02,28.70
2018,08,10,16,03,28.90
2018,08,10,16,04,29.10
2018,08,10,16,05,29.30
2018,08,10,16,06,29.40
2018,08,10,16,07,29.60
2018,08,10,16,08,29.70
2018,08,10,16,09,29.80
2018,08,10,16,10,30.00
2018,08,10,16,11,30.10
2018,08,10,16,12,30.10
2018,08,10,16,13,30.20
2018,08,10,16,14,30.30
2018,08,10,16,15,30.30
2018,08,10,16,16,30.30
2018,08,10,16,17,30.20
2018,08,10,16,18,30.20
2018,08,10,16,19,30.20
2018,08,10,16,20,30.30
2018,08,10,16,21,30.30
2018,08,10,16,22,30.30
2018,08,10,16,23,30.30
2018,08,10,16,24,30.10
2018,08,10,16,25,30.00
2018,08,10,16,26,29.90
2018,08,10,16,27,29.90
2018,08,10,16,28,29.80
2018,08,10,16,29,29.90
2018,08,10,16,30,29.90
2018,08,10,16,31,30.00
2018,08,10,16,32,30.10
2018,08,10,16,33,30.10
2018,08,10,16,34,30.20
2018,08,10,16,35,30.20
2018,08,10,16,36,30.20
2018,08,10,16,37,30.20
2018,08,10,16,38,30.20
2018,08,10,16,39,30.20
2018,08,10,16,40,30.20
2018,08,10,16,41,30.30
2018,08,10,16,42,30.30
2018,08,10,16,43,30.30
2018,08,10,16,44,30.40
2018,08,10,16,45,30.40
2018,08,10,16,46,30.30
2018,08,10,16,47,30.20
2018,08,10,16,48,30.20
2018,08,10,16,49,30.20
2018,08,10,16,50,30.10
2018,08,10,16,51,30.00
2018,08,10,16,52,29.80
2018,08,10,16,53,29.80
2018,08,10,16,54,29.70
2018,08,10,16,55,29.70
2018,08,10,16,56,29.80
2018,08,10,16,57,29.80
2018,08,10,16,58,29.80
2018,08,10,16,59,29.90
2018,08,10,17,00,29.90
2018,08,10,17,01,29.80
2018,08,10,17,02,29.80
2018,08,10,17,03,29.80
2018,08,10,17,04,29.80
2018,08,10,17,05,29.80
2018,08,10,17,06,29.80
2018,08,10,17,07,29.80
2018,08,10,17,08,29.80
2018,08,10,17,09,29.80
2018,08,10,17,10,29.90
2018,08,10,17,11,29.90
2018,08,10,17,12,29.80
2018,08,10,17,13,29.80
2018,08,10,17,14,29.70
2018,08,10,17,15,29.60
2018,08,10,17,16,29.50
2018,08,10,17,17,29.40
2018,08,10,17,18,29.30
2018,08,10,17,19,29.20